Port Angeles, WA

10:06 PM PST on February 22, 2017 (GMT -0800)
Fairchild International

Weather History for KCLM - May, 2013

Change the Weather History Date:

Friday, May 24, 2013

  Actual Average Record
Temperature  
Mean Temperature 52 °F -  
Max Temperature 57 °F 62 °F 76 °F (1983)
Min Temperature 48 °F 46 °F 35 °F (1950)
Degree Days  
Heating Degree Days 12    
Growing Degree Days 2 (Base 50)    
Moisture  
Dew Point 45 °F    
Average Humidity 79    
Maximum Humidity 93    
Minimum Humidity 62    
Precipitation  
Precipitation 0.00 in - - ()
Sea Level Pressure  
Sea Level Pressure 30.01 in    
Wind  
Wind Speed 5 mph (WNW)    
Max Wind Speed 10 mph    
Max Gust Speed -    
Visibility 10 miles    
Events      
Averages and records for this station are not official NWS values.
T = Trace of Precipitation, MM = Missing Value Source: NWS Daily Summary

Daily Weather History Graph

Daily Weather History Graph

Search for Another Location

Airport or City:

Trip Planner

Search our weather history database for the weather conditions in past years. The results will help you decide how hot, cold, wet, or windy it might be!

Date:

Astronomy

May. 24, 2013 Rise Set
Actual Time 5:24 AM PDT 8:58 PM PDT
Civil Twilight 4:45 AM PDT 9:37 PM PDT
Nautical Twilight 3:53 AM PDT 10:29 PM PDT
Astronomical Twilight 2:43 AM PDT 11:40 PM PDT
Moon 8:44 PM PDT (5/24) 5:05 AM PDT (5/24)
Length of Visible Light 16h 51m
Length of Day
15h 33m
Full, 100% of the Moon is Illuminated
May 24
Full
May 24
Full
May 31
Last Quarter
Jun 8
New
Jun 16
First Quarter

Hourly Weather History & Observations

Time (PDT) Temp. Dew Point Humidity Pressure Visibility Wind Dir Wind Speed Gust Speed Precip Events Conditions
12:31 AM 48.9 °F 43.0 °F 80% 29.97 in 10.0 mi WSW 4.6 mph - N/A   Overcast
12:53 AM 48.0 °F 43.0 °F 83% 29.97 in 10.0 mi WSW 4.6 mph - N/A   Overcast
1:53 AM 48.0 °F 43.0 °F 83% 29.97 in 10.0 mi West 3.5 mph - N/A   Overcast
2:26 AM 48.9 °F 44.1 °F 83% 29.97 in 10.0 mi Calm Calm - N/A   Overcast
2:36 AM 48.0 °F 43.0 °F 83% 29.97 in 10.0 mi WSW 4.6 mph - N/A   Overcast
2:53 AM 48.0 °F 43.0 °F 83% 29.98 in 10.0 mi WSW 4.6 mph - N/A   Overcast
3:53 AM 48.0 °F 44.1 °F 86% 29.99 in 10.0 mi West 5.8 mph - N/A   Overcast
4:53 AM 48.0 °F 44.1 °F 86% 29.99 in 10.0 mi North 3.5 mph - N/A   Overcast
5:11 AM 48.0 °F 44.1 °F 86% 29.99 in 10.0 mi Calm Calm - N/A   Overcast
5:26 AM 48.0 °F 44.1 °F 86% 29.99 in 10.0 mi WNW 4.6 mph - N/A   Overcast
5:53 AM 48.0 °F 44.1 °F 86% 30.00 in 10.0 mi WSW 6.9 mph - N/A   Overcast
6:53 AM 48.0 °F 43.0 °F 83% 30.00 in 10.0 mi West 4.6 mph - N/A   Overcast
7:21 AM 50.0 °F 42.1 °F 74% 29.99 in 10.0 mi West 5.8 mph - N/A   Scattered Clouds
7:53 AM 52.0 °F 42.1 °F 69% 29.99 in 10.0 mi West 5.8 mph - N/A   Clear
8:53 AM 51.1 °F 44.1 °F 77% 30.00 in 10.0 mi North 3.5 mph - N/A   Clear
9:53 AM 52.0 °F 44.1 °F 74% 30.01 in 10.0 mi Variable 3.5 mph - N/A   Clear
10:53 AM 52.0 °F 42.1 °F 69% 30.02 in 10.0 mi North 4.6 mph - N/A   Overcast
11:53 AM 54.0 °F 45.0 °F 72% 30.03 in 10.0 mi Calm Calm - 0.00 in   Overcast
12:53 PM 54.0 °F 42.1 °F 64% 30.03 in 10.0 mi North 4.6 mph - N/A   Overcast
1:53 PM 55.9 °F 43.0 °F 62% 30.02 in 10.0 mi NE 5.8 mph - N/A   Overcast
2:53 PM 57.0 °F 44.1 °F 62% 30.03 in 10.0 mi North 6.9 mph - N/A   Overcast
3:53 PM 55.9 °F 45.0 °F 67% 30.03 in 10.0 mi NNW 6.9 mph - N/A   Overcast
4:53 PM 55.0 °F 46.0 °F 72% 30.04 in 10.0 mi West 5.8 mph - N/A   Overcast
5:53 PM 55.9 °F 46.9 °F 72% 30.04 in 10.0 mi West 4.6 mph - N/A   Overcast
6:53 PM 53.1 °F 48.0 °F 83% 30.04 in 10.0 mi WNW 8.1 mph - N/A   Overcast
7:53 PM 53.1 °F 48.0 °F 83% 30.03 in 10.0 mi West 10.4 mph - 0.00 in   Overcast
8:53 PM 52.0 °F 46.9 °F 83% 30.04 in 10.0 mi WNW 4.6 mph - N/A   Overcast
9:53 PM 50.0 °F 48.0 °F 93% 30.04 in 10.0 mi WNW 3.5 mph - N/A   Overcast
10:53 PM 50.0 °F 48.0 °F 93% 30.05 in 10.0 mi West 5.8 mph - N/A   Overcast
11:20 PM 50.0 °F 46.9 °F 89% 30.04 in 10.0 mi West 6.9 mph - N/A   Overcast
11:53 PM 50.0 °F 46.9 °F 89% 30.05 in 10.0 mi West 8.1 mph - N/A   Overcast